{"data":{"norad_id":66473,"intl_designator":"2025-262T","name":"STARLINK-35568","alt_names":[],"object_type":"PAYLOAD","status":"ACTIVE","operator":null,"country":"US","launch_date":"2025-11-15","launch_site_code":"AFETR","launch_vehicle":null,"mission":null,"orbit_class":"UNKNOWN","rcs_meters":null,"size_class":null,"mass_kg":null,"dimensions":null,"purposes":["comms"],"wikipedia_slug":null,"has_3d_model":false,"image_url":null,"decayed_at":null,"tle_current":{"epoch":"2026-05-24T22:35:47.701248Z","epoch_age_seconds":76261,"freshness":"FRESH","line1":"1 66473U 25262T   26144.94152432  .00019002  00000+0  69744-3 0  9994","line2":"2 66473  42.9995 225.9256 0001029 280.0744  79.9991 15.27619107 30561","mean_motion":15.27619107,"eccentricity":0.0001029,"inclination_deg":42.9995,"raan_deg":225.9256,"arg_perigee_deg":280.0744,"mean_anomaly_deg":79.9991,"bstar":0.00069744,"rev_number":3056,"period_min":94.264335487917,"perigee_km":482.22599411122,"apogee_km":483.63800211104,"semimajor_km":6861.0689981111,"source":"CELESTRAK","updated_at":"2026-05-25T13:38:21.238729Z"}}}